| time (UTC) | temp F | wind direction | speed MPH | gust MPH | rain 1hr in | rain 24hr in | rain mn in | humidity % | barometer mb |
| 20260504231222 | 75 | 196 | 3.0 | 11.0 | 0.00 | 0.00 | 0.00 | 42 | 968.7 |
| 20260504230721 | 75 | 195 | 3.0 | 14.0 | 0.00 | 0.00 | 0.00 | 42 | 968.7 |
| 20260504230222 | 75 | 212 | 3.0 | 14.0 | 0.00 | 0.00 | 0.00 | 42 | 968.6 |
| 20260504225722 | 75 | 186 | 4.0 | 13.0 | 0.00 | 0.00 | 0.00 | 42 | 968.6 |
| 20260504224722 | 76 | 190 | 2.0 | 11.0 | 0.00 | 0.00 | 0.00 | 42 | 968.6 |
| 20260504224221 | 76 | 148 | 2.0 | 11.0 | 0.00 | 0.00 | 0.00 | 42 | 968.6 |
| 20260504223722 | 76 | 269 | 2.0 | 10.0 | 0.00 | 0.00 | 0.00 | 41 | 968.6 |
| 20260504223221 | 76 | 238 | 4.0 | 10.0 | 0.00 | 0.00 | 0.00 | 41 | 968.7 |
| 20260504222721 | 76 | 176 | 5.0 | 14.0 | 0.00 | 0.00 | 0.00 | 40 | 968.6 |
| 20260504222222 | 76 | 186 | 4.0 | 14.0 | 0.00 | 0.00 | 0.00 | 40 | 968.6 |
| 20260504221220 | 76 | 226 | 4.0 | 15.0 | 0.00 | 0.00 | 0.00 | 42 | 968.6 |
| 20260504220217 | 77 | 148 | 4.0 | 16.0 | 0.00 | 0.00 | 0.00 | 42 | 968.6 |
| 20260504215718 | 77 | 175 | 4.0 | 11.0 | 0.00 | 0.00 | 0.00 | 41 | 968.5 |
| 20260504214718 | 77 | 216 | 3.0 | 15.0 | 0.00 | 0.00 | 0.00 | 41 | 968.7 |
| 20260504214217 | 77 | 174 | 3.0 | 13.0 | 0.00 | 0.00 | 0.00 | 41 | 968.7 |
| 20260504213711 | 77 | 216 | 2.0 | 13.0 | 0.00 | 0.00 | 0.00 | 41 | 968.6 |
| 20260504212708 | 77 | 339 | 5.0 | 16.0 | 0.00 | 0.00 | 0.00 | 43 | 968.7 |
| 20260504212209 | 77 | 217 | 3.0 | 16.0 | 0.00 | 0.00 | 0.00 | 43 | 968.7 |
| 20260504211707 | 77 | 211 | 4.0 | 13.0 | 0.00 | 0.00 | 0.00 | 42 | 968.6 |
| 20260504211206 | 77 | 178 | 5.0 | 15.0 | 0.00 | 0.00 | 0.00 | 43 | 968.7 |
| 20260504210706 | 77 | 175 | 3.0 | 15.0 | 0.00 | 0.00 | 0.00 | 44 | 968.7 |
| 20260504210205 | 77 | 252 | 5.0 | 13.0 | 0.00 | 0.00 | 0.00 | 43 | 968.8 |
| 20260504205705 | 77 | 336 | 5.0 | 12.0 | 0.00 | 0.00 | 0.00 | 44 | 968.8 |
| 20260504205205 | 77 | 157 | 4.0 | 11.0 | 0.00 | 0.00 | 0.00 | 43 | 968.9 |
| 20260504204705 | 77 | 233 | 4.0 | 11.0 | 0.00 | 0.00 | 0.00 | 43 | 968.9 |
| 20260504204205 | 77 | 215 | 4.0 | 11.0 | 0.00 | 0.00 | 0.00 | 45 | 968.8 |
| 20260504203705 | 77 | 140 | 3.0 | 11.0 | 0.00 | 0.00 | 0.00 | 43 | 968.9 |
| 20260504203205 | 77 | 186 | 3.0 | 13.0 | 0.00 | 0.00 | 0.00 | 45 | 969.0 |
| 20260504202707 | 77 | 148 | 3.0 | 13.0 | 0.00 | 0.00 | 0.00 | 43 | 969.1 |
| 20260504202200 | 77 | 163 | 4.0 | 11.0 | 0.00 | 0.00 | 0.00 | 45 | 969.1 |
| 20260504201653 | 77 | 207 | 5.0 | 11.0 | 0.00 | 0.00 | 0.00 | 43 | 969.2 |
| 20260504201147 | 77 | 174 | 2.0 | 11.0 | 0.00 | 0.00 | 0.00 | 44 | 969.2 |
| 20260504200642 | 77 | 126 | 2.0 | 7.0 | 0.00 | 0.00 | 0.00 | 43 | 969.2 |
| 20260504195630 | 76 | 184 | 3.0 | 10.0 | 0.00 | 0.00 | 0.00 | 44 | 969.4 |
| 20260504194617 | 77 | 298 | 3.0 | 14.0 | 0.00 | 0.00 | 0.00 | 43 | 969.5 |
| 20260504194111 | 77 | 180 | 3.0 | 11.0 | 0.00 | 0.00 | 0.00 | 43 | 969.5 |
| 20260504193606 | 76 | 163 | 4.0 | 12.0 | 0.00 | 0.00 | 0.00 | 45 | 969.6 |
| 20260504193100 | 76 | 245 | 4.0 | 12.0 | 0.00 | 0.00 | 0.00 | 43 | 969.7 |
| 20260504192553 | 77 | 194 | 3.0 | 12.0 | 0.00 | 0.00 | 0.00 | 43 | 969.7 |
| 20260504192047 | 77 | 161 | 2.0 | 12.0 | 0.00 | 0.00 | 0.00 | 43 | 969.8 |
| 20260504191541 | 76 | 286 | 2.0 | 8.0 | 0.00 | 0.00 | 0.00 | 43 | 969.9 |
| 20260504191035 | 76 | 311 | 3.0 | 11.0 | 0.00 | 0.00 | 0.00 | 46 | 970.1 |
| 20260504190023 | 76 | 216 | 4.0 | 11.0 | 0.00 | 0.00 | 0.00 | 43 | 970.1 |
| 20260504185518 | 76 | 306 | 3.0 | 11.0 | 0.00 | 0.00 | 0.00 | 47 | 970.1 |
| 20260504184000 | 75 | 307 | 3.0 | 10.0 | 0.00 | 0.00 | 0.00 | 46 | 970.4 |
| 20260504183454 | 75 | 215 | 3.0 | 9.0 | 0.00 | 0.00 | 0.00 | 46 | 970.4 |
| 20260504182947 | 76 | 129 | 3.0 | 11.0 | 0.00 | 0.00 | 0.00 | 45 | 970.5 |
| 20260504181935 | 76 | 205 | 2.0 | 7.0 | 0.00 | 0.00 | 0.00 | 49 | 970.6 |
| 20260504181430 | 75 | 167 | 1.0 | 7.0 | 0.00 | 0.00 | 0.00 | 46 | 970.6 |
| 20260504180924 | 75 | 256 | 1.0 | 9.0 | 0.00 | 0.00 | 0.00 | 47 | 970.6 |
| 20260504180419 | 75 | 171 | 2.0 | 9.0 | 0.00 | 0.00 | 0.00 | 44 | 970.6 |
| 20260504175912 | 74 | 195 | 2.0 | 8.0 | 0.00 | 0.00 | 0.00 | 48 | 970.7 |
| 20260504175405 | 74 | 211 | 2.0 | 8.0 | 0.00 | 0.00 | 0.00 | 47 | 970.7 |
| 20260504174900 | 74 | 128 | 2.0 | 9.0 | 0.00 | 0.00 | 0.00 | 46 | 970.8 |
| 20260504174353 | 74 | 190 | 2.0 | 9.0 | 0.00 | 0.00 | 0.00 | 49 | 970.8 |
| 20260504173848 | 74 | 322 | 2.0 | 8.0 | 0.00 | 0.00 | 0.00 | 47 | 970.8 |
| 20260504171824 | 73 | 301 | 4.0 | 12.0 | 0.00 | 0.00 | 0.00 | 49 | 971.0 |
| 20260504170811 | 73 | 264 | 3.0 | 10.0 | 0.00 | 0.00 | 0.00 | 50 | 971.1 |
| 20260504160230 | 70 | 329 | 4.0 | 10.0 | 0.00 | 0.00 | 0.00 | 51 | 971.9 |
| 20260504150721 | 69 | 340 | 4.0 | 10.0 | 0.00 | 0.00 | 0.00 | 49 | 972.9 |
| 20260504150214 | 68 | 294 | 3.0 | 8.0 | 0.00 | 0.00 | 0.00 | 51 | 972.9 |
| 20260504141209 | 64 | 325 | 4.0 | 10.0 | 0.00 | 0.00 | 0.00 | 53 | 972.7 |
| 20260504140710 | 64 | 292 | 2.0 | 9.0 | 0.00 | 0.00 | 0.00 | 56 | 972.7 |
| 20260504140209 | 63 | 207 | 1.0 | 5.0 | 0.00 | 0.00 | 0.00 | 61 | 972.6 |
| 20260504130659 | 53 | 337 | 0.0 | 0.0 | 0.00 | 0.00 | 0.00 | 83 | 972.4 |
| 20260504130159 | 52 | 338 | 0.0 | 0.0 | 0.00 | 0.00 | 0.00 | 85 | 972.3 |
| 20260504120151 | 40 | 208 | 0.0 | 0.0 | 0.00 | 0.00 | 0.00 | 92 | 972.4 |
| 20260504110646 | 36 | 208 | 0.0 | 0.0 | 0.00 | 0.00 | 0.00 | 93 | 972.1 |
| 20260504110144 | 36 | 208 | 0.0 | 0.0 | 0.00 | 0.00 | 0.00 | 93 | 972.0 |
| 20260504081921 | 38 | 208 | 0.0 | 0.0 | 0.00 | 0.00 | 0.00 | 93 | 972.0 |
| 20260504081415 | 38 | 208 | 0.0 | 0.0 | 0.00 | 0.00 | 0.00 | 93 | 972.0 |
| 20260504080910 | 38 | 208 | 0.0 | 0.0 | 0.00 | 0.00 | 0.00 | 93 | 972.0 |
| 20260504070252 | 40 | 208 | 0.0 | 0.0 | 0.00 | 0.00 | 0.00 | 93 | 972.0 |
| 20260504060141 | 41 | 208 | 0.0 | 0.0 | 0.00 | 0.00 | 0.00 | 92 | 972.2 |
| 20260504050536 | 42 | 208 | 0.0 | 0.0 | 0.00 | 0.00 | 0.00 | 90 | 972.3 |
| 20260504045016 | 43 | 208 | 0.0 | 0.0 | 0.00 | 0.00 | 0.00 | 90 | 972.3 |
| 20260504044509 | 43 | 208 | 0.0 | 0.0 | 0.00 | 0.00 | 0.00 | 90 | 972.2 |
| 20260504044004 | 43 | 208 | 0.0 | 0.0 | 0.00 | 0.00 | 0.00 | 90 | 972.2 |
| 20260504043458 | 43 | 208 | 0.0 | 0.0 | 0.00 | 0.00 | 0.00 | 89 | 972.2 |
| 20260504042952 | 43 | 208 | 0.0 | 0.0 | 0.00 | 0.00 | 0.00 | 89 | 972.3 |
| 20260504042445 | 43 | 208 | 0.0 | 0.0 | 0.00 | 0.00 | 0.00 | 89 | 972.2 |
| 20260504041939 | 43 | 208 | 0.0 | 0.0 | 0.00 | 0.00 | 0.00 | 89 | 972.0 |
| 20260504041434 | 43 | 208 | 0.0 | 0.0 | 0.00 | 0.00 | 0.00 | 88 | 972.0 |
| 20260504040928 | 44 | 208 | 0.0 | 0.0 | 0.00 | 0.00 | 0.00 | 87 | 972.0 |
| 20260504040422 | 44 | 208 | 0.0 | 0.0 | 0.00 | 0.00 | 0.00 | 87 | 971.9 |
| 20260504035916 | 44 | 208 | 0.0 | 0.0 | 0.00 | 0.00 | 0.00 | 86 | 971.8 |
| 20260504035410 | 44 | 208 | 0.0 | 0.0 | 0.00 | 0.00 | 0.00 | 86 | 971.9 |
| 20260504034904 | 44 | 208 | 0.0 | 0.0 | 0.00 | 0.00 | 0.00 | 86 | 972.0 |
| 20260504034357 | 45 | 208 | 0.0 | 0.0 | 0.00 | 0.00 | 0.00 | 85 | 972.0 |
| 20260504033852 | 45 | 208 | 0.0 | 0.0 | 0.00 | 0.00 | 0.00 | 84 | 972.0 |
| 20260504033346 | 45 | 208 | 0.0 | 0.0 | 0.00 | 0.00 | 0.00 | 84 | 972.1 |
| 20260504032840 | 46 | 208 | 0.0 | 0.0 | 0.00 | 0.00 | 0.00 | 83 | 972.1 |
| 20260504032333 | 46 | 208 | 0.0 | 0.0 | 0.00 | 0.00 | 0.00 | 82 | 972.0 |
| 20260504031827 | 46 | 208 | 0.0 | 0.0 | 0.00 | 0.00 | 0.00 | 82 | 972.1 |
| 20260504030816 | 47 | 208 | 0.0 | 0.0 | 0.00 | 0.00 | 0.00 | 81 | 972.2 |
| 20260504030310 | 47 | 208 | 0.0 | 0.0 | 0.00 | 0.00 | 0.00 | 80 | 972.2 |
| 20260504025804 | 47 | 208 | 0.0 | 0.0 | 0.00 | 0.00 | 0.00 | 79 | 972.3 |
| 20260504025258 | 48 | 208 | 0.0 | 0.0 | 0.00 | 0.00 | 0.00 | 79 | 972.2 |
| 20260504024751 | 48 | 208 | 0.0 | 0.0 | 0.00 | 0.00 | 0.00 | 79 | 972.2 |
| 20260504024247 | 48 | 208 | 0.0 | 0.0 | 0.00 | 0.00 | 0.00 | 79 | 972.2 |
| 20260504023740 | 48 | 208 | 0.0 | 0.0 | 0.00 | 0.00 | 0.00 | 78 | 972.2 |
| 20260504023234 | 48 | 208 | 0.0 | 0.0 | 0.00 | 0.00 | 0.00 | 78 | 972.3 |
| 20260504022728 | 49 | 208 | 0.0 | 0.0 | 0.00 | 0.00 | 0.00 | 77 | 972.2 |
| 20260504022222 | 49 | 208 | 0.0 | 0.0 | 0.00 | 0.00 | 0.00 | 76 | 972.1 |
| 20260504021210 | 49 | 208 | 0.0 | 0.0 | 0.00 | 0.00 | 0.00 | 76 | 972.0 |
| 20260504020705 | 49 | 208 | 0.0 | 0.0 | 0.00 | 0.00 | 0.00 | 75 | 972.0 |
| 20260504015706 | 50 | 208 | 0.0 | 0.0 | 0.00 | 0.00 | 0.00 | 74 | 971.8 |
| 20260504015208 | 50 | 208 | 0.0 | 0.0 | 0.00 | 0.00 | 0.00 | 73 | 971.7 |
| 20260504014706 | 51 | 208 | 0.0 | 0.0 | 0.00 | 0.00 | 0.00 | 72 | 971.6 |
| 20260504014206 | 51 | 208 | 0.0 | 0.0 | 0.00 | 0.00 | 0.00 | 71 | 971.4 |
| 20260504013707 | 51 | 208 | 0.0 | 0.0 | 0.00 | 0.00 | 0.00 | 70 | 971.4 |
| 20260504013203 | 52 | 208 | 0.0 | 0.0 | 0.00 | 0.00 | 0.00 | 69 | 971.2 |
| 20260504012704 | 52 | 208 | 0.0 | 0.0 | 0.00 | 0.00 | 0.00 | 68 | 971.3 |
| 20260504012204 | 53 | 208 | 0.0 | 0.0 | 0.00 | 0.00 | 0.00 | 68 | 971.2 |
| 20260504011205 | 54 | 208 | 0.0 | 0.0 | 0.00 | 0.00 | 0.00 | 67 | 971.1 |
| 20260504010704 | 55 | 208 | 0.0 | 0.0 | 0.00 | 0.00 | 0.00 | 65 | 971.0 |
| 20260504010202 | 55 | 208 | 0.0 | 0.0 | 0.00 | 0.00 | 0.00 | 63 | 971.0 |
| 20260504005201 | 56 | 208 | 0.0 | 0.0 | 0.00 | 0.00 | 0.00 | 61 | 971.0 |
| 20260504004702 | 56 | 208 | 0.0 | 0.0 | 0.00 | 0.00 | 0.00 | 61 | 971.0 |
| 20260504003658 | 58 | 208 | 0.0 | 0.0 | 0.00 | 0.00 | 0.00 | 59 | 970.9 |
| 20260504003155 | 58 | 208 | 0.0 | 0.0 | 0.00 | 0.00 | 0.00 | 58 | 970.8 |
| 20260504002656 | 59 | 208 | 0.0 | 0.0 | 0.00 | 0.00 | 0.00 | 56 | 970.7 |
| 20260504002154 | 59 | 208 | 0.0 | 0.0 | 0.00 | 0.00 | 0.00 | 55 | 970.7 |
| 20260504001153 | 60 | 208 | 0.0 | 0.0 | 0.00 | 0.00 | 0.00 | 54 | 970.6 |
| 20260504000653 | 61 | 208 | 0.0 | 0.0 | 0.00 | 0.00 | 0.00 | 53 | 970.6 |
| 20260504000154 | 62 | 209 | 0.0 | 0.0 | 0.00 | 0.00 | 0.00 | 52 | 970.6 |
| 20260503235649 | 63 | 209 | 0.0 | 0.0 | 0.00 | 0.00 | 0.00 | 50 | 970.6 |
| 20260503235148 | 64 | 209 | 0.0 | 0.0 | 0.00 | 0.00 | 0.00 | 48 | 970.6 |
| 20260503234146 | 65 | 209 | 0.0 | 0.0 | 0.00 | 0.00 | 0.00 | 46 | 970.5 |
| 20260503233145 | 66 | 209 | 0.0 | 3.0 | 0.00 | 0.00 | 0.00 | 43 | 970.4 |
| 20260503232646 | 66 | 175 | 1.0 | 4.0 | 0.00 | 0.00 | 0.00 | 43 | 970.3 |
| 20260503232141 | 67 | 176 | 1.0 | 4.0 | 0.00 | 0.00 | 0.00 | 40 | 970.4 |
| 20260503231641 | 67 | 251 | 0.0 | 3.0 | 0.00 | 0.00 | 0.00 | 40 | 970.4 |